Regional Weather Roundup
Issued by NWS

Home | Current Version | Previous Version | Text Only | Print | Product List | Glossary On
Versions: 1 2 3 4 5 6 7 8 9 10 11 12 13 14 15 16 17 18 19 20 21 22 23 24 25 26 27 28 29 30 31 32 33 34 35 36 37 38 39 40 41 42 43 44 45 46 47 48 49 50
000
ASUS43 KDTX 251310
RWRMI
MICHIGAN HOURLY REGIONAL WEATHER ROUNDUP
NATIONAL WEATHER SERVICE DETROIT/PONTIAC MI
900 AM EDT FRI JUL 25 2014

NOTE: "FAIR" INDICATES FEW OR NO CLOUDS BELOW 12,000 FEET WITH NO
SIGNIFICANT WEATHER AND/OR OBSTRUCTION TO VISIBILITY.

MIZ047>049-052>055-059>063-066>070-074>076-081>083-251400-
SOUTHEAST LOWER MICHIGAN

CITY           SKY/WX    TMP DP  RH WIND       PRES   REMARKS
ADRIAN         SUNNY     64  53  67 SW7       30.09F
ALMA           PTSUNNY   59  53  78 SW5       30.09R
ANN ARBOR      MOSUNNY   63  53  70 SW5       30.09R
BAD AXE        SUNNY     62  54  76 SW5       30.08R
DETROIT CITY   PTSUNNY   69  51  52 W8        30.11R
DETROIT        PTSUNNY   64  52  64 SW10      30.11R
FLINT          SUNNY     66  53  63 SW6       30.09R
GROSSE ILE     PTSUNNY   64  54  68 SW6       30.10R
HILLSDALE      MOSUNNY   62  55  77 S3        30.09R
HOWELL         MOSUNNY   62  55  78 S5        30.08F

CITY           SKY/WX    TMP DP  RH WIND       PRES   REMARKS
JACKSON        MOSUNNY   61  54  77 SW5       30.09R
LAMBERTVILLE   SUNNY     64  52  63 SW5       30.10S
LANSING        PTSUNNY   60  53  77 CALM      30.09S
LAPEER         NOT AVBL
MASON          PTSUNNY   59  55  84 CALM      30.09R
MONROE         MOSUNNY   64  55  72 SW6       30.09R
MT. CLEMENS    PTSUNNY   67  53  59 W12       30.08R
PONTIAC        PTSUNNY   64  52  64 SW6       30.09R
PORT HOPE        N/A     64  54  69 SW6       30.04R
PORT HURON     SUNNY     61  55  82 SW3       30.09R
TRI CITIES     SUNNY     65  53  65 SW7       30.08R
YPSILANTI      PTSUNNY   68  52  56 SW7       30.11R
$$
MIZ043>046-050>051-056>058-064>065-071>073-077>080-251400-
SOUTHWEST LOWER MICHIGAN

CITY           SKY/WX    TMP DP  RH WIND       PRES   REMARKS
BATTLE CREEK   PTSUNNY   63  53  70 SW5       30.09R
BENTON HARBOR  CLOUDY    58  54  86 CALM      30.11R
BIG RAPIDS     MOSUNNY   56  54  94 CALM      30.08R
COLDWATER      MOSUNNY   64  58  80 SW5       30.09R
HOLLAND        CLOUDY    61  53  75 S3        30.11R
GRAND RAPIDS   PTSUNNY   61  52  72 SW6       30.10R
KALAMAZOO      PTSUNNY   61  55  81 CALM      30.10R
MARSHALL       PTSUNNY   59  55  85 CALM      30.08R
MUSKEGON       CLOUDY    60  53  77 S5        30.09R
$$
MIZ016>042-251400-
NORTHERN LOWER MICHIGAN

CITY           SKY/WX    TMP DP  RH WIND       PRES   REMARKS
ALPENA         SUNNY     62  51  67 SW9       30.04R
BEAVER ISLAND  PTSUNNY   64  54  69 SW12      30.00R
BELLAIRE       PTSUNNY   60  48  64 S6        30.03S
CADILLAC       CLOUDY    58  50  75 SW7       30.07R
CHARLEVOIX     PTSUNNY   60  55  84 S7        30.04S
FRANKFORT      CLOUDY    63  53  69 SW3       30.03S
GAYLORD        MOSUNNY   60  48  64 SW9       30.04R
GRAYLING       PTSUNNY   62  50  65 W5        30.05S
HARBOR SPRINGS MOSUNNY   62  51  67 SW3       30.01F
HOUGHTON LAKE  PTSUNNY   60  50  69 W6        30.07R
MANISTEE       CLOUDY    55  50  82 SE3       30.05S
OSCODA         SUNNY     64  52  64 SW9       30.03R
PELLSTON       MOSUNNY   64  51  62 SW7       30.00S
TRAVERSE CITY  CLOUDY    64  46  52 SW8G17    30.02R
$$
MIZ007>008-015-251400-
EASTERN UPPER MICHIGAN

CITY           SKY/WX    TMP DP  RH WIND       PRES   REMARKS
KINROSS        CLOUDY    61  55  82 SW6       29.98S
MACKINAC ISLAN CLOUDY    62  54  74 SW7       29.99S
NEWBERRY       PTSUNNY   61  53  75 SW14      29.97R
S. S. MARIE    MOSUNNY   62  53  72 SW6       29.97R
$$
MIZ004>006-011>014-085-251400-
CENTRAL UPPER MICHIGAN

CITY           SKY/WX    TMP DP  RH WIND       PRES   REMARKS
MANISTIQUE     CLOUDY    60  54  82 S9        29.97R
ESCANABA       PTSUNNY   61  50  67 SW3       29.95F
MENOMINEE      CLOUDY    63  52  67 SW8       29.96F
SAWYER-GWINN   MOSUNNY   61  54  77 S3        29.94S
$$
MIZ001>003-009>011-084-251400-
WESTERN UPPER MICHIGAN

CITY           SKY/WX    TMP DP  RH WIND       PRES   REMARKS
IRON MOUNTAIN  PTSUNNY   64  56  75 S5        29.93F
HOUGHTON       MOSUNNY   63  56  78 S5        29.88F
COPPER HARBOR    N/A     67  54  63 SW9G18    29.86F
$$

ABBREVIATIONS USED IN REMARKS
   TC - TEMPERATURE IN CELSIUS
  WCI - WIND CHILL INDEX
   HX - HEAT INDEX
  VSB - VISIBILITY



USA.gov is the U.S. government's official web portal to all federal, state and local government web resources and services.